Weather History for KUES - December, 2011

Change the Weather History Date:

Monday, December 12, 2011

  Actual Average Record
Temperature  
Mean Temperature 34 °F -  
Max Temperature 39 °F 34 °F 54 °F (1965)
Min Temperature 28 °F 19 °F -7 °F (1962)
Degree Days  
Heating Degree Days 32    
Moisture  
Dew Point 27 °F    
Average Humidity 78    
Maximum Humidity 93    
Minimum Humidity 61    
Precipitation  
Precipitation 0.00 in - - ()
Sea Level Pressure  
Sea Level Pressure 30.33 in    
Wind  
Wind Speed 5 mph (SSW)    
Max Wind Speed 12 mph    
Max Gust Speed -    
Visibility 9 miles    
Events      
Averages and records for this station are not official NWS values.
T = Trace of Precipitation, MM = Missing Value Source: NWS Daily Summary

Daily Weather History Graph

Daily Weather History Graph

Search for Another Location

Airport or City:

Trip Planner

Search our weather history database for the weather conditions in past years. The results will help you decide how hot, cold, wet, or windy it might be!

Date:

Astronomy

Dec. 12, 2011 Rise Set
Actual Time 7:14 AM CST 4:18 PM CST
Civil Twilight 6:42 AM CST 4:50 PM CST
Nautical Twilight 6:06 AM CST 5:26 PM CST
Astronomical Twilight 5:32 AM CST 6:00 PM CST
Moon 6:30 PM CST (12/12) 8:45 AM CST (12/12)
Length of Visible Light 10h 07m
Length of Day
9h 03m
Waning Gibbous, 95% of the Moon is Illuminated
Dec 12
Waning Gibbous
Dec 17
Last Quarter
Dec 24
New
Jan 1
First Quarter
Jan 9
Full

Hourly Weather History & Observations

Time (CST) Temp. Windchill Dew Point Humidity Pressure Visibility Wind Dir Wind Speed Gust Speed Precip Events Conditions
12:15 AM 30.2 °F 26.7 °F 28.4 °F 93% 30.31 in 7.0 mi SSW 3.5 mph - N/A   Clear
12:35 AM 30.2 °F 25.4 °F 28.4 °F 93% 30.31 in 7.0 mi SSW 4.6 mph - N/A   Clear
12:55 AM 30.2 °F 25.4 °F 28.4 °F 93% 30.30 in 7.0 mi SSW 4.6 mph - N/A   Clear
1:35 AM 30.2 °F 25.4 °F 26.6 °F 86% 30.31 in 7.0 mi SW 4.6 mph - N/A   Clear
1:55 AM 30.2 °F 25.4 °F 28.4 °F 93% 30.32 in 7.0 mi SSW 4.6 mph - N/A   Clear
2:35 AM 30.2 °F 26.7 °F 26.6 °F 86% 30.33 in 7.0 mi SW 3.5 mph - N/A   Clear
2:55 AM 28.4 °F - 26.6 °F 93% 30.33 in 7.0 mi Calm Calm - N/A   Scattered Clouds
3:15 AM 28.4 °F - 26.6 °F 93% 30.32 in 5.0 mi Calm Calm - N/A   Scattered Clouds
3:35 AM 30.2 °F 26.7 °F 26.6 °F 86% 30.32 in 7.0 mi South 3.5 mph - N/A   Mostly Cloudy
3:55 AM 30.2 °F 24.3 °F 28.4 °F 93% 30.32 in 7.0 mi SSW 5.8 mph - N/A   Overcast
4:15 AM 30.2 °F 26.7 °F 28.4 °F 93% 30.32 in 7.0 mi South 3.5 mph - N/A   Overcast
4:35 AM 30.2 °F 25.4 °F 28.4 °F 93% 30.32 in 7.0 mi SSW 4.6 mph - N/A   Overcast
5:45 AM 30.2 °F 21.9 °F 26.6 °F 86% 30.32 in 10.0 mi SSE 9.2 mph - N/A   Overcast
6:45 AM 28.4 °F 21.2 °F 24.8 °F 86% 30.33 in 10.0 mi South 6.9 mph - N/A   Overcast
9:45 AM 30.2 °F 23.4 °F 24.8 °F 80% 30.34 in 10.0 mi SSW 6.9 mph - N/A   Mostly Cloudy
10:45 AM 33.8 °F 29.6 °F 26.6 °F 75% 30.34 in 10.0 mi SSW 4.6 mph - N/A   Scattered Clouds
11:45 AM 35.6 °F 29.9 °F 26.6 °F 70% 30.33 in 10.0 mi SSW 6.9 mph - N/A   Scattered Clouds
12:45 PM 37.4 °F 32.1 °F 28.4 °F 70% 30.31 in 10.0 mi South 6.9 mph - N/A   Scattered Clouds
1:45 PM 39.2 °F - 28.4 °F 65% 30.30 in 10.0 mi Calm Calm - N/A   Overcast
2:45 PM 39.2 °F 35.9 °F 28.4 °F 65% 30.31 in 10.0 mi SSW 4.6 mph - N/A   Overcast
3:45 PM 39.2 °F 32.0 °F 26.6 °F 61% 30.32 in 10.0 mi South 11.5 mph - N/A   Overcast
5:45 PM 37.4 °F 30.8 °F 26.6 °F 65% 30.33 in 10.0 mi South 9.2 mph - N/A   Overcast
6:45 PM 37.4 °F 29.8 °F 26.6 °F 65% 30.33 in 10.0 mi South 11.5 mph - N/A   Overcast
7:45 PM 37.4 °F 32.1 °F 28.4 °F 70% 30.34 in 10.0 mi South 6.9 mph - N/A   Overcast
8:15 PM 35.6 °F 31.7 °F 28.4 °F 75% 30.35 in 10.0 mi South 4.6 mph - N/A   Overcast
8:35 PM 35.6 °F 31.7 °F 28.4 °F 75% 30.34 in 10.0 mi South 4.6 mph - N/A   Overcast
8:45 PM 37.4 °F 32.1 °F 28.4 °F 70% 30.35 in 10.0 mi SSW 6.9 mph - N/A   Overcast
8:55 PM 35.6 °F 32.8 °F 28.4 °F 75% 30.35 in 10.0 mi SSW 3.5 mph - N/A   Overcast
9:15 PM 35.6 °F 31.7 °F 28.4 °F 75% 30.35 in 10.0 mi South 4.6 mph - N/A   Overcast
9:35 PM 35.6 °F 32.8 °F 28.4 °F 75% 30.35 in 10.0 mi South 3.5 mph - N/A   Overcast
9:55 PM 35.6 °F 32.8 °F 28.4 °F 75% 30.35 in 10.0 mi South 3.5 mph - N/A   Overcast
10:15 PM 35.6 °F 32.8 °F 28.4 °F 75% 30.35 in 10.0 mi SSW 3.5 mph - N/A   Overcast
10:35 PM 35.6 °F 32.8 °F 28.4 °F 75% 30.35 in 10.0 mi South 3.5 mph - N/A   Overcast
10:55 PM 35.6 °F 31.7 °F 26.6 °F 70% 30.35 in 10.0 mi South 4.6 mph - N/A   Overcast
11:15 PM 35.6 °F 31.7 °F 26.6 °F 70% 30.35 in 10.0 mi South 4.6 mph - N/A   Overcast
11:35 PM 35.6 °F 31.7 °F 26.6 °F 70% 30.35 in 10.0 mi South 4.6 mph - N/A   Overcast
11:55 PM 35.6 °F 32.8 °F 26.6 °F 70% 30.36 in 10.0 mi SSW 3.5 mph - N/A   Overcast